Location: Hilton Head Island
(32.2163°N, 80.7526°W)
Time: 14:50:38
(UTC-04:00)

Tiros 1 despin weight - Pass Details

Date: 23 February 2026
Orbit: 556 x 593 km, 48.2° (Epoch: 10 March)

Event Time Altitude Azimuth Distance (km) Brightness Sun altitude
Rises 13:42:55 0° 267° (W) 2,755 ? 45.2°
Reaches altitude 10° 13:45:37 10° 284° (WNW) 1,853 ? 45.0°
Maximum altitude 13:48:52 21° 334° (NNW) 1,285 ? 44.7°
Drops below altitude 10° 13:52:06 10° 24° (NNE) 1,843 ? 44.4°
Sets 13:54:48 0° 41° (NE) 2,736 ? 44.2°
